VK2CZZ Weather Reports


time (UTC)temp
F
wind
direction
speed
knots
gust
knots
rain 1hr
in
rain 24hr
in
rain mn
in
humidity
%
barometer
mb
20260509064039 67 184 0.0 0.0 0.00 0.00 0.00 64 1024.5
20260509063037 68 184 0.0 0.0 0.00 0.00 0.00 64 1024.4
20260509062058 68 360 0.0 0.0 0.00 0.00 0.00 64 1024.4
20260509061029 68 180 0.0 0.0 0.00 0.00 0.00 63 1024.3
20260509060022 68 184 0.0 0.0 0.00 0.00 0.00 64 1024.2
20260509055034 69 184 0.0 0.0 0.00 0.00 0.00 64 1024.1
20260509054051 69 189 0.0 0.0 0.00 0.00 0.00 64 1024.1
20260509053026 69 188 0.0 0.0 0.00 0.00 0.00 65 1024.0
20260509052020 69 178 0.0 0.0 0.00 0.00 0.00 64 1024.0
20260509051038 69 180 0.0 0.0 0.00 0.00 0.00 63 1024.0
20260509050052 70 186 0.0 0.0 0.00 0.00 0.00 61 1024.0
20260509045024 70 183 0.0 0.0 0.00 0.00 0.00 63 1023.9
20260509044020 70 196 0.0 6.1 0.00 0.00 0.00 63 1023.9
20260509043033 70 194 0.0 3.5 0.00 0.00 0.00 61 1024.0
20260509042031 70 192 0.0 0.0 0.00 0.00 0.00 64 1023.9
20260509041026 70 178 0.0 4.3 0.00 0.00 0.00 60 1023.9
20260509040024 70 161 0.0 1.7 0.00 0.00 0.00 60 1023.9
20260509035041 70 209 0.0 0.0 0.00 0.00 0.00 60 1023.9
20260509034038 70 190 0.0 0.0 0.00 0.00 0.00 61 1024.0
20260509033031 70 196 0.0 0.0 0.00 0.00 0.00 58 1024.1
20260509032026 70 190 0.0 6.1 0.00 0.00 0.00 53 1024.1
20260509031020 71 198 0.0 4.3 0.00 0.00 0.00 56 1024.3
20260509030032 71 211 0.0 5.2 0.00 0.00 0.00 52 1024.3
20260509025025 71 188 0.0 0.0 0.00 0.00 0.00 52 1024.4
20260509024020 70 187 0.0 0.0 0.00 0.00 0.00 53 1024.5
20260509023036 71 360 0.0 0.0 0.00 0.00 0.00 51 1024.7
20260509022050 71 192 0.0 0.0 0.00 0.00 0.00 52 1024.7
20260509021023 70 205 0.0 0.0 0.00 0.00 0.00 55 1024.8
20260509020038 70 207 0.0 0.0 0.00 0.00 0.00 53 1025.0
20260509015036 70 220 0.0 0.0 0.00 0.00 0.00 54 1025.1
20260509014034 69 240 0.0 0.0 0.00 0.00 0.00 55 1025.3
20260509013035 68 254 0.0 0.0 0.00 0.00 0.00 57 1025.4
20260509012029 68 238 0.0 3.5 0.00 0.00 0.00 56 1025.6
20260509011026 67 229 0.0 0.0 0.00 0.00 0.00 58 1025.6
20260509010021 67 249 0.0 0.0 0.00 0.00 0.00 57 1025.8
20260509005037 67 241 0.0 0.0 0.00 0.00 0.00 58 1026.0
20260509004032 66 244 0.0 4.3 0.00 0.00 0.00 60 1026.0
20260509003026 65 236 0.0 3.5 0.00 0.00 0.00 61 1025.9
20260509002022 64 288 0.0 0.0 0.00 0.00 0.00 63 1026.1
20260509001040 64 263 0.0 0.0 0.00 0.00 0.00 63 1026.1
20260509000034 63 292 0.0 5.2 0.00 0.00 0.00 64 1026.2
20260508235049 63 266 0.0 0.0 0.00 0.00 0.00 64 1026.2
20260508234027 63 279 0.0 0.0 0.00 0.00 0.00 65 1026.2
20260508233045 62 290 0.0 0.0 0.00 0.00 0.00 65 1026.3
20260508232019 62 276 0.0 4.3 0.00 0.00 0.00 65 1026.2
20260508231038 61 268 0.0 5.2 0.00 0.00 0.00 67 1026.2
20260508230032 61 265 0.0 2.6 0.00 0.00 0.00 67 1026.1
20260508225032 60 240 0.0 4.3 0.00 0.00 0.00 69 1026.1
20260508224027 59 253 0.0 0.0 0.00 0.00 0.00 71 1026.2
20260508223046 58 266 0.0 0.0 0.00 0.00 0.00 73 1026.0
20260508222022 57 267 0.0 0.0 0.00 0.00 0.00 74 1026.1
20260508221042 56 267 0.0 0.0 0.00 0.00 0.00 75 1025.9
20260508220017 55 269 0.0 0.0 0.00 0.00 0.00 76 1025.9
20260508215059 55 276 0.0 0.0 0.00 0.00 0.00 77 1025.7
20260508214033 54 265 0.0 0.0 0.00 0.00 0.00 79 1025.7
20260508213027 53 268 0.0 0.0 0.00 0.00 0.00 80 1025.5
20260508212021 53 268 0.0 0.0 0.00 0.00 0.00 81 1025.3
20260508211037 52 269 0.0 0.0 0.00 0.00 0.00 82 1025.2
20260508210033 52 270 0.0 0.0 0.00 0.00 0.00 82 1025.1
20260508205049 52 266 0.0 0.0 0.00 0.00 0.00 82 1025.0
20260508204021 52 265 0.0 0.0 0.00 0.00 0.00 81 1024.9
20260508203055 52 266 0.0 0.0 0.00 0.00 0.00 80 1024.7
20260508202029 52 267 0.0 0.0 0.00 0.00 0.00 80 1024.7
20260508201049 53 279 0.0 0.0 0.00 0.00 0.00 80 1024.6
20260508200019 53 279 0.0 0.0 0.00 0.00 0.00 79 1024.5
20260508195038 53 263 0.0 0.0 0.00 0.00 0.00 79 1024.4
20260508194036 53 263 0.0 0.0 0.00 0.00 0.00 79 1024.1
20260508193056 52 236 0.0 0.0 0.00 0.00 0.00 79 1023.9
20260508192028 52 246 0.0 0.0 0.00 0.00 0.00 77 1023.8
20260508191043 53 246 0.0 0.0 0.00 0.00 0.00 76 1023.7
20260508190039 54 246 0.0 0.0 0.00 0.00 0.00 75 1023.7
20260508185059 54 246 0.0 0.0 0.00 0.00 0.00 75 1023.6
20260508184031 55 246 0.0 0.0 0.00 0.00 0.00 74 1023.5
20260508183029 55 252 0.0 0.0 0.00 0.00 0.00 75 1023.5
20260508182025 55 271 0.0 0.0 0.00 0.00 0.00 75 1023.5
20260508181041 54 261 0.0 0.0 0.00 0.00 0.00 75 1023.5
20260508180038 55 255 0.0 0.0 0.00 0.00 0.00 75 1023.4
20260508175036 55 275 0.0 0.0 0.00 0.00 0.00 75 1023.4
20260508174032 55 281 0.0 0.0 0.00 0.00 0.00 75 1023.3
20260508173036 55 284 0.0 0.0 0.00 0.00 0.00 74 1023.3
20260508172029 55 270 0.0 0.0 0.00 0.00 0.00 74 1023.3
20260508171045 55 263 0.0 0.0 0.00 0.00 0.00 73 1023.3
20260508170040 56 263 0.0 0.0 0.00 0.00 0.00 72 1023.2
20260508165039 56 273 0.0 0.0 0.00 0.00 0.00 72 1023.1
20260508164032 55 269 0.0 0.0 0.00 0.00 0.00 73 1023.0
20260508163025 55 261 0.0 0.0 0.00 0.00 0.00 73 1023.2
20260508162040 55 263 0.0 0.0 0.00 0.00 0.00 73 1023.2
20260508161036 55 257 0.0 0.0 0.00 0.00 0.00 74 1023.1
20260508160050 55 265 0.0 0.0 0.00 0.00 0.00 74 1023.1
20260508155026 55 265 0.0 0.0 0.00 0.00 0.00 73 1023.1
20260508154021 55 266 0.0 0.0 0.00 0.00 0.00 73 1023.1
20260508153041 56 265 0.0 0.0 0.00 0.00 0.00 73 1023.1
20260508152038 56 268 0.0 0.0 0.00 0.00 0.00 73 1023.2
20260508151037 55 270 0.0 0.0 0.00 0.00 0.00 74 1023.2
20260508150033 55 269 0.0 0.0 0.00 0.00 0.00 74 1023.2
20260508145038 55 269 0.0 0.0 0.00 0.00 0.00 73 1023.1
20260508144038 56 269 0.0 0.0 0.00 0.00 0.00 72 1023.1
20260508143032 56 269 0.0 0.0 0.00 0.00 0.00 72 1023.1
20260508142022 56 269 0.0 0.0 0.00 0.00 0.00 72 1023.0
20260508141040 57 269 0.0 0.0 0.00 0.00 0.00 71 1023.0
20260508140035 57 269 0.0 0.0 0.00 0.00 0.00 71 1022.9
20260508135030 57 269 0.0 0.0 0.00 0.00 0.00 70 1023.0
20260508134047 57 269 0.0 0.0 0.00 0.00 0.00 69 1022.9
20260508133044 57 269 0.0 0.0 0.00 0.00 0.00 68 1022.9
20260508132037 57 267 0.0 0.0 0.00 0.00 0.00 68 1022.9
20260508131029 58 254 0.0 0.0 0.00 0.00 0.00 68 1022.8
20260508130025 58 244 0.0 0.0 0.00 0.00 0.00 67 1022.8
20260508125022 58 263 0.0 0.0 0.00 0.00 0.00 67 1022.8
20260508124036 58 268 0.0 0.0 0.00 0.00 0.00 67 1022.8
20260508123037 58 273 0.0 0.0 0.00 0.00 0.00 66 1022.6
20260508122033 58 244 0.0 0.0 0.00 0.00 0.00 65 1022.7
20260508121029 59 235 0.0 0.0 0.00 0.00 0.00 65 1022.8
20260508120022 59 267 0.0 0.9 0.00 0.00 0.00 64 1022.6
20260508115034 59 252 0.0 0.0 0.00 0.00 0.00 64 1022.5
20260508114053 59 265 0.0 0.0 0.00 0.00 0.00 62 1022.5
20260508113024 60 246 0.0 4.3 0.00 0.00 0.00 62 1022.5
20260508112036 59 302 0.0 4.3 0.00 0.00 0.00 62 1022.4
20260508111034 59 221 0.0 1.7 0.00 0.00 0.00 62 1022.3
20260508110031 60 257 0.0 5.2 0.00 0.00 0.00 62 1022.2
20260508105048 60 252 0.0 0.0 0.00 0.00 0.00 62 1022.0
20260508104043 60 265 0.0 0.0 0.00 0.00 0.00 62 1022.0
20260508103035 60 279 0.0 0.0 0.00 0.00 0.00 61 1021.8
20260508102031 60 245 0.0 0.0 0.00 0.00 0.00 60 1021.6
20260508101047 60 253 0.0 0.0 0.00 0.00 0.00 62 1021.4
20260508100018 61 273 0.0 0.0 0.00 0.00 0.00 60 1021.2
20260508095101 61 245 0.0 0.0 0.00 0.00 0.00 59 1021.2
20260508094039 60 252 0.0 0.0 0.00 0.00 0.00 60 1021.0
20260508093035 61 271 0.0 0.0 0.00 0.00 0.00 58 1020.9
20260508092032 62 205 0.0 0.0 0.00 0.00 0.00 56 1020.8
20260508091030 63 206 0.0 0.0 0.00 0.00 0.00 54 1020.6
20260508090025 63 209 0.0 0.0 0.00 0.00 0.00 54 1020.3
20260508085040 63 234 0.0 0.0 0.00 0.00 0.00 54 1020.2
20260508084038 64 232 0.0 0.0 0.00 0.00 0.00 53 1019.9
20260508083031 64 208 0.0 0.0 0.00 0.00 0.00 54 1019.7
20260508082027 64 204 0.0 0.0 0.00 0.00 0.00 53 1019.6
20260508081043 65 204 0.0 0.0 0.00 0.00 0.00 53 1019.5
20260508080100 65 200 0.0 0.0 0.00 0.00 0.00 52 1019.2
20260508075025 65 200 0.0 0.0 0.00 0.00 0.00 51 1019.0
20260508074042 65 196 0.0 0.0 0.00 0.00 0.00 50 1018.8
20260508073034 65 209 0.0 0.0 0.00 0.00 0.00 50 1018.6
20260508072030 66 226 0.0 0.0 0.00 0.00 0.00 51 1018.4
20260508071025 66 234 0.0 0.0 0.00 0.00 0.00 50 1018.3
20260508070018 67 239 0.0 0.0 0.00 0.00 0.00 48 1018.1
20260508065038 68 244 0.0 0.0 0.00 0.00 0.00 46 1017.8